Location: Espelette
(43.3402°N, 1.4474°W)
Time: 18:39:22
(UTC+00:00)

NOSS 3-1 (C) - Pass Details

Date: 19 May 2025
Orbit: 625 x 1577 km, 63.4° (Epoch: 18 June)

Event Time Altitude Azimuth Distance (km) Brightness Sun altitude
Rises 20:15:10 0° 182° (S) 2,909 5.7 -8.1°
Reaches altitude 10° 20:17:37 10° 169° (S) 2,046 4.8 -8.4°
Maximum altitude 20:21:25 26° 112° (ESE) 1,352 3.8 -8.9°
Drops below altitude 10° 20:25:41 10° 56° (ENE) 2,333 5.3 -9.6°
Sets 20:28:40 0° 45° (NE) 3,413 6.3 -10.0°
